GW0809 Weather Reports


time (UTC)temp
C
wind
direction
speed
KPH
gust
KPH
rain 1hr
cm
rain 24hr
cm
rain mn
cm
humidity
%
barometer
mb
20260506124054 8 0 0.0 0.0 0.00 0.00 0.00 95 1017.0
20260506123554 8 0 0.0 0.0 0.00 0.00 0.00 94 1017.1
20260506123059 8 0 0.0 0.0 0.00 0.00 0.00 94 1017.1
20260506122554 8 0 0.0 0.0 0.00 0.00 0.00 94 1017.2
20260506122053 8 0 0.0 0.0 0.00 0.00 0.00 94 1017.1
20260506121559 8 0 0.0 0.0 0.00 0.00 0.00 94 1017.0
20260506121053 8 0 0.0 0.0 0.00 0.00 0.00 94 1017.0
20260506120553 8 0 0.0 0.0 0.00 0.00 0.00 94 1016.8
20260506120111 8 0 0.0 0.0 0.00 0.00 0.00 94 1016.7
20260506115555 8 0 0.0 0.0 0.00 0.00 0.00 94 1016.7
20260506115053 8 0 0.0 0.0 0.00 0.00 0.00 94 1016.7
20260506114600 8 0 0.0 0.0 0.00 0.00 0.00 94 1016.7
20260506114056 8 0 0.0 1.6 0.00 0.00 0.00 94 1016.7
20260506113554 8 0 0.0 1.6 0.00 0.00 0.00 94 1016.7
20260506113057 8 0 0.0 1.6 0.00 0.00 0.00 94 1016.5
20260506112553 9 0 0.0 1.6 0.00 0.00 0.00 94 1016.4
20260506112054 9 0 0.0 1.6 0.00 0.00 0.00 94 1016.5
20260506111553 9 0 0.0 1.6 0.00 0.00 0.00 94 1016.6
20260506111053 9 0 0.0 0.0 0.00 0.00 0.00 94 1016.5
20260506110553 9 0 0.0 0.0 0.00 0.00 0.00 94 1016.5
20260506110115 9 0 0.0 0.0 0.00 0.00 0.00 94 1016.5
20260506105553 9 0 0.0 0.0 0.00 0.00 0.00 94 1016.4
20260506105053 9 0 0.0 0.0 0.00 0.00 0.00 94 1016.3
20260506104613 9 0 0.0 0.0 0.00 0.00 0.00 93 1016.2
20260506104054 9 0 0.0 0.0 0.00 0.00 0.00 93 1016.1
20260506103554 9 0 0.0 0.0 0.00 0.00 0.00 93 1016.0
20260506103057 9 0 0.0 0.0 0.00 0.00 0.00 93 1015.9
20260506102556 9 0 0.0 0.0 0.00 0.00 0.00 93 1015.8
20260506102056 9 0 0.0 0.0 0.00 0.00 0.00 93 1015.8
20260506101558 9 0 0.0 0.0 0.00 0.00 0.00 93 1015.8
20260506101057 10 0 0.0 0.0 0.00 0.00 0.00 93 1015.7
20260506100557 10 0 0.0 0.0 0.00 0.00 0.00 93 1015.7
20260506100113 10 0 0.0 1.6 0.00 0.00 0.00 93 1015.7
20260506095556 10 0 0.0 1.6 0.00 0.00 0.00 93 1015.6
20260506095055 10 0 0.0 0.0 0.00 0.00 0.00 93 1015.6
20260506094603 10 0 0.0 0.0 0.00 0.00 0.00 94 1015.5
20260506094054 10 0 0.0 1.6 0.00 0.00 0.00 94 1015.5
20260506093555 10 0 0.0 1.6 0.00 0.00 0.00 93 1015.6
20260506093101 10 0 0.0 1.6 0.00 0.00 0.00 93 1015.5
20260506092555 10 0 0.0 0.0 0.00 0.00 0.00 93 1015.5
20260506092055 10 0 0.0 0.0 0.00 0.00 0.00 93 1015.5
20260506091607 10 0 0.0 1.6 0.00 0.00 0.00 93 1015.5
20260506091055 10 0 0.0 1.6 0.00 0.00 0.00 93 1015.4
20260506090557 10 253 0.0 0.0 0.00 0.00 0.00 93 1015.5
20260506090104 10 0 0.0 0.0 0.00 0.00 0.00 93 1015.5
20260506085555 10 0 0.0 0.0 0.00 0.00 0.00 93 1015.4
20260506085055 10 0 0.0 1.6 0.00 0.00 0.00 92 1015.4
20260506084631 10 0 0.0 1.6 0.00 0.00 0.00 92 1015.4
20260506084055 10 0 0.0 0.0 0.00 0.00 0.00 92 1015.4
20260506083555 10 0 0.0 1.6 0.00 0.00 0.00 92 1015.3
20260506083058 10 0 0.0 1.6 0.00 0.00 0.00 93 1015.3
20260506082557 10 253 0.0 1.6 0.00 0.00 0.00 92 1015.4
20260506082055 10 0 0.0 1.6 0.00 0.00 0.00 92 1015.2
20260506081558 10 0 0.0 1.6 0.00 0.00 0.00 92 1015.2
20260506081056 10 0 0.0 3.2 0.00 0.00 0.00 92 1015.2
20260506080559 10 0 0.0 3.2 0.00 0.00 0.00 92 1015.1
20260506073055 11 0 0.0 0.0 0.00 0.00 0.00 91 1014.9
20260506072555 11 0 0.0 0.0 0.00 0.00 0.00 91 1014.9
20260506072055 11 0 0.0 0.0 0.00 0.00 0.00 91 1014.9
20260506071558 11 0 0.0 0.0 0.00 0.00 0.00 91 1014.9
20260506071054 11 0 0.0 1.6 0.00 0.00 0.00 91 1014.7
20260506070555 11 0 0.0 1.6 0.00 0.00 0.00 90 1014.7
20260506062055 11 0 0.0 0.0 0.00 0.00 0.00 90 1014.3
20260506061556 11 0 0.0 0.0 0.00 0.00 0.00 90 1014.1
20260506061055 11 0 0.0 0.0 0.00 0.00 0.00 89 1014.2
20260506060556 12 0 0.0 0.0 0.00 0.00 0.00 89 1014.2
20260506051054 12 0 0.0 0.0 0.00 0.00 0.00 87 1014.1
20260506050554 12 0 0.0 0.0 0.00 0.00 0.00 86 1014.1
20260506045054 13 0 0.0 0.0 0.00 0.00 0.00 85 1014.0
20260506044555 13 0 0.0 0.0 0.00 0.00 0.00 85 1014.0
20260506044056 13 0 0.0 0.0 0.00 0.00 0.00 85 1013.9
20260506043556 13 0 0.0 0.0 0.00 0.00 0.00 85 1013.9
20260506043056 13 0 0.0 3.2 0.00 0.00 0.00 85 1013.8
20260506042556 13 0 0.0 3.2 0.00 0.00 0.00 85 1013.8
20260506042058 13 0 0.0 3.2 0.00 0.00 0.00 85 1013.7
20260506041605 13 281 0.0 1.6 0.00 0.00 0.00 84 1013.6
20260506041055 13 0 0.0 8.0 0.00 0.00 0.00 84 1013.6
20260506040555 13 0 0.0 8.0 0.00 0.00 0.00 84 1013.5
20260506040059 13 0 0.0 1.6 0.00 0.00 0.00 84 1013.4
20260506035555 13 0 0.0 3.2 0.00 0.00 0.00 83 1013.3
20260506035055 13 0 0.0 3.2 0.00 0.00 0.00 83 1013.2
20260506034558 13 0 0.0 4.8 0.00 0.00 0.00 82 1013.2
20260506034057 14 0 0.0 4.8 0.00 0.00 0.00 82 1013.1
20260506033557 14 19 0.0 3.2 0.00 0.00 0.00 82 1013.1
20260506033054 14 15 0.0 3.2 0.00 0.00 0.00 82 1013.2
20260506032555 15 0 0.0 3.2 0.00 0.00 0.00 81 1013.1
20260506032055 15 0 0.0 3.2 0.00 0.00 0.00 81 1013.1
20260506031555 15 0 0.0 3.2 0.00 0.00 0.00 80 1013.0
20260506031054 15 336 0.0 3.2 0.00 0.00 0.00 79 1013.0
20260506030554 15 0 0.0 3.2 0.00 0.00 0.00 78 1012.8
20260506030055 16 0 0.0 3.2 0.00 0.00 0.00 77 1012.8
20260506025555 16 0 0.0 4.8 0.00 0.00 0.00 77 1012.8
20260506025058 16 67 0.0 4.8 0.00 0.00 0.00 77 1012.8
20260506024556 16 0 0.0 4.8 0.00 0.00 0.00 76 1012.8
20260506024054 16 51 0.0 3.2 0.00 0.00 0.00 75 1012.8
20260506023556 17 0 0.0 3.2 0.00 0.00 0.00 76 1012.9
20260506023107 17 0 0.0 3.2 0.00 0.00 0.00 74 1013.0
20260506022555 17 0 0.0 4.8 0.00 0.00 0.00 75 1012.9
20260506022055 17 5 1.6 4.8 0.00 0.00 0.00 75 1013.0
20260506021612 17 279 1.6 4.8 0.00 0.00 0.00 72 1013.0
20260506021054 17 20 0.0 4.8 0.00 0.00 0.00 73 1013.0
20260506020555 17 311 0.0 6.4 0.00 0.00 0.00 72 1013.0
20260506020053 17 0 1.6 6.4 0.00 0.00 0.00 72 1013.0
20260506015555 17 0 0.0 4.8 0.00 0.00 0.00 71 1012.9
20260506015057 17 0 0.0 11.3 0.00 0.00 0.00 71 1013.0
20260506014557 18 45 0.0 11.3 0.00 0.00 0.00 71 1013.0
20260506014057 18 5 0.0 6.4 0.00 0.00 0.00 70 1013.1
20260506013554 18 0 0.0 4.8 0.00 0.00 0.00 71 1013.1
20260506013107 18 42 0.0 3.2 0.00 0.00 0.00 73 1013.0
20260506012554 18 0 0.0 4.8 0.00 0.00 0.00 71 1013.0
20260506012054 18 0 0.0 4.8 0.00 0.00 0.00 71 1013.0
20260506011616 18 0 0.0 6.4 0.00 0.00 0.00 71 1013.0
20260506011055 18 351 0.0 6.4 0.00 0.00 0.00 71 1013.0
20260506010555 18 29 0.0 4.8 0.00 0.00 0.00 69 1013.0
20260506010100 19 123 1.6 4.8 0.00 0.00 0.00 69 1013.0
20260506005558 19 144 1.6 6.4 0.00 0.00 0.00 67 1012.9
20260506005054 20 157 1.6 6.4 0.00 0.00 0.00 67 1012.9
20260506004556 20 0 0.0 4.8 0.00 0.00 0.00 66 1012.9
20260506004054 20 170 0.0 4.8 0.00 0.00 0.00 66 1013.0
20260506003555 20 47 0.0 4.8 0.00 0.00 0.00 67 1012.9
20260506003058 20 319 0.0 6.4 0.00 0.00 0.00 66 1013.0
20260506002554 20 309 0.0 6.4 0.00 0.00 0.00 65 1013.0
20260506002055 20 9 1.6 6.4 0.00 0.00 0.00 66 1013.1
20260506001557 20 69 0.0 6.4 0.00 0.00 0.00 66 1013.2
20260506001054 20 0 1.6 4.8 0.00 0.00 0.00 66 1013.3
20260506000554 20 86 1.6 8.0 0.00 0.00 0.00 65 1013.3
20260506000057 20 163 3.2 8.0 0.00 0.00 0.00 64 1013.2
20260505235556 20 171 1.6 8.0 0.00 0.00 0.00 65 1013.2
20260505235056 20 269 1.6 8.0 0.00 0.00 0.00 66 1013.2
20260505234558 20 0 1.6 8.0 0.00 0.00 0.00 65 1013.3
20260505234055 20 257 1.6 8.0 0.00 0.00 0.00 66 1013.4
20260505233554 20 92 1.6 9.7 0.00 0.00 0.00 65 1013.5
20260505233105 20 5 1.6 9.7 0.00 0.00 0.00 67 1013.5
20260505232554 20 190 1.6 9.7 0.00 0.00 0.00 67 1013.5
20260505232056 20 170 1.6 9.7 0.00 0.00 0.00 67 1013.6
20260505231608 20 90 1.6 11.3 0.00 0.00 0.00 66 1013.7
20260505231054 20 163 1.6 11.3 0.00 0.00 0.00 66 1013.7
20260505230554 20 123 1.6 8.0 0.00 0.00 0.00 65 1013.7
20260505230057 20 144 1.6 8.0 0.00 0.00 0.00 66 1013.8
20260505225554 20 54 1.6 6.4 0.00 0.00 0.00 66 1013.8
20260505225054 20 5 1.6 8.0 0.00 0.00 0.00 65 1013.9
20260505224602 20 348 1.6 8.0 0.00 0.00 0.00 67 1013.8
20260505224055 20 205 1.6 8.0 0.00 0.00 0.00 66 1013.9
20260505223554 20 198 1.6 11.3 0.00 0.00 0.00 66 1013.9
20260505223058 20 0 3.2 11.3 0.00 0.00 0.00 67 1013.9
20260505222559 20 19 1.6 11.3 0.00 0.00 0.00 67 1013.9
20260505222056 20 194 3.2 12.9 0.00 0.00 0.00 66 1013.9
20260505221602 20 228 1.6 12.9 0.00 0.00 0.00 66 1013.9
20260505221054 20 202 1.6 12.9 0.00 0.00 0.00 65 1014.0
20260505220554 20 352 1.6 6.4 0.00 0.00 0.00 67 1014.0
20260505220100 20 0 1.6 8.0 0.00 0.00 0.00 68 1014.0
20260505215554 20 175 1.6 11.3 0.00 0.00 0.00 67 1014.0
20260505215054 20 165 1.6 11.3 0.00 0.00 0.00 67 1014.0
20260505214559 20 63 1.6 8.0 0.00 0.00 0.00 67 1014.0
20260505214053 20 348 1.6 8.0 0.00 0.00 0.00 67 1014.1
20260505213554 20 5 1.6 8.0 0.00 0.00 0.00 69 1014.1
20260505213055 20 106 1.6 9.7 0.00 0.00 0.00 67 1014.2
20260505212555 20 288 3.2 9.7 0.00 0.00 0.00 68 1014.3
20260505212054 20 272 1.6 9.7 0.00 0.00 0.00 68 1014.3
20260505211553 20 198 3.2 8.0 0.00 0.00 0.00 66 1014.3
20260505211056 20 35 1.6 9.7 0.00 0.00 0.00 67 1014.4
20260505210554 20 127 1.6 9.7 0.00 0.00 0.00 68 1014.3
20260505210055 19 0 3.2 9.7 0.00 0.00 0.00 68 1014.3
20260505205555 19 103 3.2 9.7 0.00 0.00 0.00 68 1014.3
20260505205055 19 213 1.6 9.7 0.00 0.00 0.00 70 1014.3
20260505204556 19 199 3.2 9.7 0.00 0.00 0.00 68 1014.4
20260505204054 19 168 1.6 12.9 0.00 0.00 0.00 70 1014.4
20260505203554 19 0 1.6 12.9 0.00 0.00 0.00 69 1014.4
20260505203119 19 310 1.6 12.9 0.00 0.00 0.00 68 1014.4
20260505202557 18 194 1.6 9.7 0.00 0.00 0.00 69 1014.5
20260505202056 18 226 3.2 9.7 0.00 0.00 0.00 70 1014.5
20260505201601 18 180 3.2 8.0 0.00 0.00 0.00 70 1014.6
20260505201054 18 136 1.6 9.7 0.00 0.00 0.00 70 1014.5
20260505200554 18 171 3.2 11.3 0.00 0.00 0.00 69 1014.5
20260505200055 18 107 1.6 11.3 0.00 0.00 0.00 70 1014.5
20260505195558 19 78 3.2 12.9 0.00 0.00 0.00 69 1014.6
20260505195056 19 149 3.2 12.9 0.00 0.00 0.00 69 1014.6
20260505194553 19 14 1.6 12.9 0.00 0.00 0.00 69 1014.5
20260505194056 19 311 1.6 11.3 0.00 0.00 0.00 71 1014.6
20260505193555 19 180 1.6 11.3 0.00 0.00 0.00 70 1014.5
20260505193100 18 142 3.2 11.3 0.00 0.00 0.00 70 1014.5
20260505192557 18 90 3.2 9.7 0.00 0.00 0.00 70 1014.6
20260505192054 18 259 1.6 8.0 0.00 0.00 0.00 72 1014.5
20260505191610 18 0 3.2 9.7 0.00 0.00 0.00 69 1014.5
20260505191055 18 142 1.6 9.7 0.00 0.00 0.00 71 1014.5
20260505190554 18 39 3.2 8.0 0.00 0.00 0.00 71 1014.5
20260505190054 18 109 1.6 8.0 0.00 0.00 0.00 70 1014.5
20260505185554 18 221 1.6 8.0 0.00 0.00 0.00 71 1014.5
20260505185054 18 159 1.6 9.7 0.00 0.00 0.00 71 1014.5
20260505184556 18 76 3.2 9.7 0.00 0.00 0.00 71 1014.5
20260505184055 18 179 3.2 8.0 0.00 0.00 0.00 69 1014.5
20260505183555 19 146 1.6 8.0 0.00 0.00 0.00 70 1014.5
20260505183056 18 0 1.6 9.7 0.00 0.00 0.00 71 1014.5
20260505182554 18 288 1.6 9.7 0.00 0.00 0.00 72 1014.5
20260505182054 18 151 1.6 9.7 0.00 0.00 0.00 71 1014.5
20260505181556 18 205 1.6 9.7 0.00 0.00 0.00 72 1014.4
20260505181054 18 190 1.6 9.7 0.00 0.00 0.00 71 1014.4
20260505180554 18 217 3.2 9.7 0.00 0.00 0.00 72 1014.4
20260505175554 18 202 1.6 11.3 0.00 0.00 0.00 72 1014.3
20260505175057 18 126 1.6 11.3 0.00 0.00 0.00 73 1014.3
20260505174559 18 223 1.6 9.7 0.00 0.00 0.00 72 1014.3
20260505174054 18 194 1.6 8.0 0.00 0.00 0.00 72 1014.4
20260505173554 18 123 1.6 9.7 0.00 0.00 0.00 71 1014.3
20260505173058 18 230 1.6 9.7 0.00 0.00 0.00 72 1014.3
20260505172554 18 90 0.0 9.7 0.00 0.00 0.00 72 1014.4
20260505172054 18 235 1.6 9.7 0.00 0.00 0.00 72 1014.4
20260505171556 18 84 1.6 8.0 0.00 0.00 0.00 72 1014.3
20260505171055 17 198 1.6 9.7 0.00 0.00 0.00 72 1014.3
20260505170554 17 197 1.6 9.7 0.00 0.00 0.00 72 1014.3
20260505170111 17 171 1.6 8.0 0.00 0.00 0.00 72 1014.3
20260505165554 17 259 3.2 8.0 0.00 0.00 0.00 71 1014.3
20260505165057 17 143 1.6 8.0 0.00 0.00 0.00 71 1014.3
20260505164558 17 202 1.6 8.0 0.00 0.00 0.00 73 1014.3
20260505164054 17 36 3.2 8.0 0.00 0.00 0.00 73 1014.3
20260505163553 17 0 1.6 6.4 0.00 0.00 0.00 73 1014.3
20260505163056 17 101 1.6 6.4 0.00 0.00 0.00 74 1014.3
20260505162553 17 0 1.6 8.0 0.00 0.00 0.00 74 1014.3
20260505162057 17 132 1.6 8.0 0.00 0.00 0.00 73 1014.3
20260505161617 17 182 1.6 6.4 0.00 0.00 0.00 74 1014.4
20260505161054 17 213 0.0 4.8 0.00 0.00 0.00 73 1014.3
20260505160555 17 30 1.6 4.8 0.00 0.00 0.00 73 1014.4
20260505160106 16 0 0.0 4.8 0.00 0.00 0.00 74 1014.2
20260505153108 16 0 1.6 4.8 0.00 0.00 0.00 75 1014.3
20260505152554 16 0 0.0 4.8 0.00 0.00 0.00 76 1014.3
20260505152054 15 102 0.0 4.8 0.00 0.00 0.00 78 1014.2
20260505151604 15 115 0.0 4.8 0.00 0.00 0.00 78 1014.2
20260505151054 15 0 0.0 3.2 0.00 0.00 0.00 79 1014.2
20260505150553 15 184 0.0 3.2 0.00 0.00 0.00 80 1014.1
20260505140553 10 0 0.0 1.6 0.00 0.00 0.00 93 1013.6
20260505140105 10 0 0.0 3.2 0.00 0.00 0.00 93 1013.4
20260505124557 9 0 0.0 0.0 0.00 0.00 0.00 92 1012.7